Burlington, WA
on Saturday, January 12, 2013

Saturday
Previous Day Next Day
Daily Summary
 ActualAverage (KBLI)Record (KBLI)
Temperature
Mean Temperature °F 39°F  
Max Temperature 35°F 45°F 57°F (2002)
Min Temperature 28°F 33°F 4°F (1950)
Degree Days
Heating Degree Days 34 26  
Month to date heating degree days 318  
Cooling Degree Days 0 0  
Month to date cooling degree days 0  
Year to date cooling degree days 0  
Moisture
Dew Point 27°F   
Average Humidity 88    
Maximum Humidity 100    
Minimum Humidity 70    
Precipitation
Precipitation 0.00 in 0.17 in 3.30 in (1976)
Month to date precipitation 1.82  
Year to date precipitation 1.82  
Wind
Wind Speed 6 mph   
Max Wind Speed 9 mph   
Max Gust Speed mph   
Visibility 9 miles   
Events     

Key: T is trace of precipitation, MM is missing value
Source: NWS Daily Summary
Time(PST)TemperatureDew PointHumidity Pressure Visibility Wind DirectionWind SpeedGust SpeedPrecipitationEvents Conditions
12:15 AM 30.2°F 28.4°F 93% 30.34 in 10.0 miles ENE 3.5 mph - 0.00 in   Clear
12:35 AM 30.2°F 28.4°F 93% 30.35 in 10.0 miles ENE 4.6 mph - 0.00 in   Clear
12:55 AM 30.2°F 28.4°F 93% 30.35 in 10.0 miles ENE 6.9 mph - 0.00 in   Clear
1:15 AM 30.2°F 28.4°F 93% 30.35 in 10.0 miles ENE 9.2 mph - 0.00 in   Clear
1:35 AM 30.2°F 26.6°F 86% 30.35 in 10.0 miles NE 5.8 mph - 0.00 in   Clear
1:55 AM 30.2°F 28.4°F 93% 30.35 in 10.0 miles NE 6.9 mph - 0.00 in   Clear
2:15 AM 30.2°F 26.6°F 86% 30.35 in 10.0 miles NE 5.8 mph - 0.00 in   Clear
2:35 AM 28.4°F 28.4°F 100% 30.36 in 10.0 miles NE 8.1 mph - 0.00 in   Clear
2:55 AM 28.4°F 28.4°F 100% 30.36 in 10.0 miles NE 8.1 mph - 0.00 in   Clear
3:15 AM 28.4°F 28.4°F 100% 30.36 in 10.0 miles NE 6.9 mph - 0.00 in   Clear
3:35 AM 28.4°F 26.6°F 93% 30.36 in 10.0 miles NE 6.9 mph - 0.00 in   Clear
3:55 AM 28.4°F 26.6°F 93% 30.36 in 10.0 miles NE 6.9 mph - 0.00 in   Clear
4:15 AM 28.4°F 26.6°F 93% 30.36 in 10.0 miles NE 6.9 mph - 0.00 in   Clear
4:35 AM 28.4°F 26.6°F 93% 30.36 in 10.0 miles NE 6.9 mph - 0.00 in   Clear
4:55 AM 28.4°F 26.6°F 93% 30.36 in 10.0 miles NE 9.2 mph - 0.00 in   Clear
5:15 AM 28.4°F 26.6°F 93% 30.36 in 10.0 miles NE 9.2 mph - 0.00 in   Clear
5:35 AM 28.4°F 26.6°F 93% 30.36 in 10.0 miles NE 5.8 mph - 0.00 in   Clear
5:55 AM 28.4°F 26.6°F 93% 30.36 in 10.0 miles NE 8.1 mph - 0.00 in   Clear
6:15 AM 28.4°F 26.6°F 93% 30.36 in 10.0 miles NE 8.1 mph - 0.00 in   Clear
6:35 AM 28.4°F 26.6°F 93% 30.37 in 10.0 miles NNE 6.9 mph - 0.00 in   Clear
6:55 AM 28.4°F 26.6°F 93% 30.37 in 10.0 miles NNE 6.9 mph - 0.00 in   Clear
7:35 AM 28.4°F 24.8°F 86% 30.38 in 10.0 miles NE 8.1 mph - 0.00 in   Clear
7:55 AM 28.4°F 24.8°F 86% 30.39 in 10.0 miles NE 6.9 mph - 0.00 in   Clear
8:15 AM 28.4°F 24.8°F 86% 30.39 in 10.0 miles NE 6.9 mph - 0.00 in   Clear
8:35 AM 28.4°F 24.8°F 86% 30.40 in 10.0 miles NE 6.9 mph - 0.00 in   Clear
8:55 AM 28.4°F 24.8°F 86% 30.40 in 9.0 miles NE 6.9 mph - 0.00 in   Clear
9:15 AM 28.4°F 26.6°F 93% 30.40 in 9.0 miles NE 6.9 mph - 0.00 in   Clear
9:35 AM 30.2°F 26.6°F 86% 30.41 in 9.0 miles ENE 9.2 mph - 0.00 in   Clear
9:55 AM 30.2°F 26.6°F 86% 30.41 in 8.0 miles NE 8.1 mph - 0.00 in   Clear
10:15 AM 30.2°F 26.6°F 86% 30.41 in 8.0 miles NE 5.8 mph - 0.00 in   Clear
10:35 AM 30.2°F 26.6°F 86% 30.41 in 9.0 miles NE 6.9 mph - 0.00 in   Clear
10:55 AM 32.0°F 26.6°F 80% 30.42 in 8.0 miles NE 6.9 mph - 0.00 in   Clear
11:15 AM 32.0°F 26.6°F 80% 30.41 in 8.0 miles ENE 5.8 mph - 0.00 in   Clear
11:35 AM 32.0°F 28.4°F 87% 30.41 in 8.0 miles NE 4.6 mph - 0.00 in   Clear
11:55 AM 32.0°F 28.4°F 87% 30.41 in 9.0 miles Calm Calm - 0.00 in   Clear
12:15 PM 33.8°F 28.4°F 81% 30.40 in 8.0 miles NE 3.5 mph - 0.00 in   Clear
12:35 PM 33.8°F 30.2°F 87% 30.40 in 7.0 miles NW 5.8 mph - 0.00 in   Clear
12:55 PM 33.8°F 30.2°F 87% 30.40 in 7.0 miles NW 4.6 mph - 0.00 in   Clear
1:15 PM 33.8°F 30.2°F 87% 30.41 in 8.0 miles WNW 6.9 mph - 0.00 in   Clear
1:35 PM 33.8°F 28.4°F 81% 30.41 in 8.0 miles NW 5.8 mph - 0.00 in   Clear
1:55 PM 33.8°F 28.4°F 81% 30.40 in 8.0 miles WNW 5.8 mph - 0.00 in   Clear
2:15 PM 33.8°F 26.6°F 75% 30.40 in 8.0 miles NW 6.9 mph - 0.00 in   Clear
2:35 PM 35.6°F 28.4°F 75% 30.41 in 8.0 miles North 4.6 mph - 0.00 in   Clear
2:55 PM 35.6°F 26.6°F 70% 30.40 in 7.0 miles NNW 4.6 mph - 0.00 in   Clear
3:15 PM 35.6°F 26.6°F 70% 30.40 in 8.0 miles NNW 6.9 mph - 0.00 in   Clear
3:35 PM 35.6°F 26.6°F 70% 30.40 in 5.0 miles NW 6.9 mph - 0.00 in   Clear
3:55 PM 33.8°F 26.6°F 75% 30.40 in 8.0 miles WNW 6.9 mph - 0.00 in   Clear
4:15 PM 32.0°F 24.8°F 75% 30.41 in 9.0 miles WNW 4.6 mph - 0.00 in   Clear
4:35 PM 32.0°F 26.6°F 80% 30.41 in 9.0 miles WNW 5.8 mph - 0.00 in   Clear
4:55 PM 30.2°F 26.6°F 86% 30.41 in 9.0 miles WNW 5.8 mph - 0.00 in   Clear
5:15 PM 30.2°F 26.6°F 86% 30.40 in 10.0 miles NW 3.5 mph - 0.00 in   Clear
5:35 PM 30.2°F 26.6°F 86% 30.40 in 10.0 miles NW 4.6 mph - 0.00 in   Clear
5:55 PM 28.4°F 26.6°F 93% 30.42 in 10.0 miles North 4.6 mph - 0.00 in   Clear
6:15 PM 30.2°F 26.6°F 86% 30.42 in 10.0 miles Calm Calm - 0.00 in   Clear
6:35 PM 30.2°F 26.6°F 86% 30.42 in 10.0 miles Calm Calm - 0.00 in   Clear
6:55 PM 28.4°F 26.6°F 93% 30.42 in 10.0 miles North 4.6 mph - 0.00 in   Clear
7:15 PM 30.2°F 26.6°F 86% 30.42 in 10.0 miles North 3.5 mph - 0.00 in   Clear
7:55 PM 30.2°F 26.6°F 86% 30.42 in 10.0 miles NE 3.5 mph - 0.00 in   Clear
8:15 PM 30.2°F 26.6°F 86% 30.42 in 10.0 miles NE 3.5 mph - 0.00 in   Clear
8:35 PM 28.4°F 28.4°F 100% 30.42 in 9.0 miles Calm Calm - 0.00 in   Clear
9:15 PM 28.4°F 28.4°F 100% 30.43 in 10.0 miles NNE 5.8 mph - 0.00 in   Clear
9:35 PM 28.4°F 28.4°F 100% 30.42 in 10.0 miles NE 5.8 mph - 0.00 in   Clear
9:55 PM 28.4°F 28.4°F 100% 30.44 in 10.0 miles NE 6.9 mph - 0.00 in   Clear
10:35 PM 28.4°F 28.4°F 100% 30.44 in 10.0 miles NE 8.1 mph - 0.00 in   Clear
11:15 PM 28.4°F 28.4°F 100% 30.46 in 10.0 miles NE 4.6 mph - 0.00 in   Clear
11:35 PM 28.4°F 28.4°F 100% 30.46 in 10.0 miles NE 5.8 mph - 0.00 in   Clear
Moon Phase
Jan. 12 Jan. 18 Jan. 26 Feb. 03 Feb. 10
Sunrise:07:58 AM (PST) Moon Rise:08:11 AM (PST)1/12
Sunset:04:38 PM (PST) Moon Set:06:24 PM (PST)1/12

Copyright © 2014 The Weather Underground, Inc.